Weather History for Lorain / Elyria, OH

Change the Weather History Date:

Thursday, May 16, 2013

  Actual Average (KCLE) Record (KCLE)
Temperature  
Mean Temperature 68 °F 60 °F  
Max Temperature 82 °F 70 °F 89 °F (1991)
Min Temperature 55 °F 50 °F 29 °F (1984)
Degree Days  
Heating Degree Days 0 7  
Month to date heating degree days 136  
Since 1 July heating degree days 5647  
Cooling Degree Days 4 1  
Month to date cooling degree days 16  
Year to date cooling degree days 27  
Growing Degree Days 18 (Base 50)    
Moisture  
Dew Point 44 °F    
Average Humidity 43    
Maximum Humidity 70    
Minimum Humidity 18    
Precipitation  
Precipitation 0.00 in 0.12 in 1.01 in (1976)
Month to date precipitation 1.81  
Year to date precipitation 13.29  
Snow  
Snow 0.00 in 0.00 in - ()
Month to date snowfall 0.1  
Since 1 July snowfall 68.2  
Snow Depth -    
Sea Level Pressure  
Sea Level Pressure 29.88 in    
Wind  
Wind Speed 5 mph (NW)    
Max Wind Speed 14 mph    
Max Gust Speed 16 mph    
Visibility 10 miles    
Events      
T = Trace of Precipitation, MM = Missing Value Source: NWS Daily Summary

Daily Weather History Graph

Daily Weather History Graph

Search for Another Location

Airport:

Trip Planner

Search our weather history database for the weather conditions in past years. The results will help you decide how hot, cold, wet, or windy it might be!

Date:

Astronomy

May. 16, 2013 Rise Set
Actual Time 6:08 AM EDT 8:41 PM EDT
Civil Twilight 5:37 AM EDT 9:13 PM EDT
Nautical Twilight 4:57 AM EDT 9:53 PM EDT
Astronomical Twilight 4:13 AM EDT 10:37 PM EDT
Moon 11:42 AM EDT (5/16) 1:01 AM EDT (5/16)
Length of Visible Light 15h 36m
Length of Day
14h 33m
Waxing Crescent, 35% of the Moon is Illuminated
May 16
Waxing Crescent
May 18
First Quarter
May 25
Full
May 31
Last Quarter
Jun 8
New

Hourly Weather History & Observations

Time (EDT) Temp. Dew Point Humidity Pressure Visibility Wind Dir Wind Speed Gust Speed Precip Events Conditions
12:53 AM 64.0 °F 50.0 °F 60% 29.78 in 10.0 mi SW 3.5 mph - N/A   Scattered Clouds
1:53 AM 64.0 °F 51.1 °F 63% 29.78 in 10.0 mi NW 4.6 mph - N/A   Partly Cloudy
2:53 AM 63.0 °F 48.0 °F 58% 29.80 in 10.0 mi West 3.5 mph - N/A   Scattered Clouds
3:53 AM 63.0 °F 46.0 °F 54% 29.81 in 10.0 mi NNW 4.6 mph - N/A   Clear
4:53 AM 57.9 °F 46.9 °F 67% 29.82 in 10.0 mi NW 5.8 mph - N/A   Clear
5:53 AM 55.9 °F 46.0 °F 69% 29.83 in 10.0 mi NNW 6.9 mph - N/A   Clear
6:53 AM 57.9 °F 48.0 °F 70% 29.86 in 10.0 mi NW 6.9 mph - N/A   Clear
7:53 AM 63.0 °F 51.1 °F 65% 29.88 in 10.0 mi WNW 3.5 mph - N/A   Clear
8:53 AM 66.9 °F 48.0 °F 51% 29.89 in 10.0 mi NNW 4.6 mph - N/A   Clear
9:53 AM 71.1 °F 46.0 °F 41% 29.90 in 10.0 mi North 8.1 mph - N/A   Clear
11:53 AM 73.9 °F 44.1 °F 34% 29.92 in 10.0 mi WNW 8.1 mph - N/A   Clear
12:53 PM 75.9 °F 37.9 °F 25% 29.91 in 10.0 mi West 6.9 mph - N/A   Clear
1:51 PM 78.8 °F 39.2 °F 24% 29.92 in 6.0 mi Variable 3.5 mph - N/A   Haze
1:53 PM 79.0 °F 39.9 °F 25% 29.91 in 8.0 mi Calm Calm - N/A   Partly Cloudy
2:53 PM 81.0 °F 35.1 °F 19% 29.91 in 10.0 mi North 9.2 mph 16.1 mph N/A   Clear
3:53 PM 82.0 °F 35.1 °F 18% 29.90 in 10.0 mi NW 13.8 mph - N/A   Clear
4:53 PM 82.0 °F 37.9 °F 21% 29.90 in 10.0 mi NNW 9.2 mph - N/A   Clear
6:53 PM 80.1 °F 39.0 °F 23% 29.90 in 10.0 mi Calm Calm - N/A   Mostly Cloudy
7:53 PM 73.9 °F 45.0 °F 35% 29.90 in 10.0 mi SW 4.6 mph - N/A   Scattered Clouds
8:53 PM 73.0 °F 45.0 °F 37% 29.92 in 10.0 mi SW 4.6 mph - N/A   Mostly Cloudy
9:53 PM 69.1 °F 43.0 °F 39% 29.95 in 10.0 mi NE 5.8 mph - N/A   Mostly Cloudy
10:53 PM 66.0 °F 42.1 °F 42% 29.96 in 10.0 mi Calm Calm - N/A   Partly Cloudy
11:53 PM 62.1 °F 45.0 °F 53% 29.97 in 10.0 mi Calm Calm - N/A   Clear